{"data":{"norad_id":59241,"epoch":"2026-05-25T01:42:00.049824Z","epoch_age_seconds":65580,"freshness":"FRESH","line1":"1 59241U 24049L   26145.07083391  .00001376  00000+0  59520-4 0  9990","line2":"2 59241  43.0024  72.4842 0001057 240.8369 119.2377 15.27583052124081","mean_motion":15.27583052,"eccentricity":0.0001057,"inclination_deg":43.0024,"raan_deg":72.4842,"arg_perigee_deg":240.8369,"mean_anomaly_deg":119.2377,"bstar":5.952e-5,"rev_number":12408,"period_min":94.266560375534,"perigee_km":482.31473086453,"apogee_km":483.7651836733,"semimajor_km":6861.1769572689,"source":"CELESTRAK","updated_at":"2026-05-25T13:38:18.871105Z"}}